Retour au catalogue

STARLINK-38157

ActifCommunicationsSSO
NORAD 100263·PAYLOAD·🇺🇸 United States

Lancé Aug 8, 2026 depuis Vandenberg Space Force Base

Loading…

Prochains Passages (prochaines 24 heures)

TLE

FraisSource: Space-Track

Époque: Sep 14, 2026, 15:32 UTC

1 A0263U 26181T   26257.64745333  .00155614  00000-0  10251-2 0  9999
2 A0263  97.2822 301.0252 0002155  72.1768 287.9733 15.75192794  7040

Suivez STARLINK-38157 en temps réel avec AllMySat

Download on the App Store